Temp
-6 -7 -8 -8 -7 -7 -7 -7 -8 -8 -8 -8 -8 -8 -8 -8 -8 -8 -8 -8 -8 -8 -6 -7 -8 -6 -6 -7 -7 -7 -7 -7 -7 -7 -7 -8 -8 -7 -7 -7 -7 -7 -7 -7
-7 -8 -8 -8 -8 -8 -8 -8 -8 -8 -8 -7 -8 -8 -8 -8 -8 -8 -8 -8 -8 -7 -7 -7 -8 -7 -7 -7 -8 -7 -7 -7 -8 -9 -7 -6 -7 -7 -7 -7 -7 -6 -6 -7
-8 -8 -8 -8 -8 -8 -8 -8 -8 -8 -8 -8 -7 -7 -7 -7 -7 -7 -8 -8 -8 -8 -7 -8 -8 -7 -7 -7 -8 -8 -7 -7 -8 -8 -9 -8 -8 -7 -7 -6 -6 -6 -7 -7
-8 -9 -9 -8 -9 -8 -7 -8 -8 -8 -8 -7 -7 -7 -7 -7 -7 -7 -8 -8 -8 -8 -8 -7 -8 -7 -7 -7 -7 -7 -6 -6 -7 -6 -6 -7 -8 -7 -6 -6 -6 -6 -6 -6
-8 -8 -9 -9 -9 -8 -8 -8 -8 -8 -8 -8 -7 -7 -7 -7 -7 -7 -7 -7 -8 -8 -8 -7 -7 -7 -7 -7 -7 -7 -7 -7 -6 -7 -6 -6 -7 -7 -6 -6 -6 -6 -6 -6
-9 -8 -9 -9 -9 -8 -8 -8 -8 -8 -8 -7 -7 -7 -7 -7 -7 -7 -7 -7 -8 -8 -8 -8 -8 -7 -7 -7 -7 -7 -7 -7 -7 -6 -7 -7 -6 -6 -6 -6 -6 -6 -7 -7
-9 -8 -9 -8 -9 -8 -8 -8 -7 -7 -7 -6 -7 -7 -7 -7 -7 -7 -7 -7 -7 -7 -8 -7 -8 -8 -8 -8 -7 -7 -7 -7 -7 -7 -6 -6 -6 -6 -6 -6 -6 -7 -7 -7
-9 -8 -9 -9 -8 -8 -8 -7 -7 -7 -7 -6 -7 -7 -7 -8 -7 -7 -7 -7 -7 -7 -8 -8 -8 -8 -8 -8 -7 -8 -8 -7 -7 -6 -6 -6 -6 -6 -6 -6 -6 -6 -6 -6
-9 -9 -9 -8 -8 -8 -8 -8 -8 -7 -8 -7 -7 -8 -8 -8 -8 -8 -8 -7 -7 -7 -8 -8 -8 -8 -8 -8 -8 -8 -8 -7 -7 -7 -6 -6 -6 -6 -6 -7 -6 -6 -7 -6
-9 -9 -9 -8 -8 -8 -8 -8 -8 -8 -7 -7 -7 -8 -7 -8 -8 -8 -8 -8 -8 -8 -8 -8 -8 -8 -8 -8 -9 -8 -8 -7 -7 -7 -6 -6 -6 -6 -6 -6 -6 -6 -7 -7
-8 -9 -9 -8 -8 -8 -8 -8 -8 -8 -8 -7 -7 -7 -8 -8 -8 -8 -8 -8 -8 -8 -8 -8 -8 -8 -8 -8 -9 -9 -8 -8 -7 -7 -6 -6 -6 -6 -6 -6 -5 -6 -6 -7
-9 -8 -8 -8 -8 -8 -8 -8 -8 -7 -8 -8 -8 -8 -8 -8 -8 -8 -8 -8 -9 -9 -8 -8 -9 -9 -9 -9 -9 -9 -9 -8 -7 -7 -6 -6 -6 -6 -5 -5 -6 -6 -6 -7
-9 -9 -9 -8 -8 -8 -8 -8 -8 -8 -8 -8 -8 -8 -8 -8 -8 -8 -8 -8 -9 -9 -9 -8 -9 -9 -9 -9 -9 -9 -9 -8 -7 -7 -7 -6 -6 -5 -6 -6 -6 -7 -7 -7
-9 -9 -8 -8 -8 -8 -9 -8 -8 -8 -8 -8 -8 -9 -8 -9 -9 -9 -9 -9 -9 -9 -9 -9 -9 -9 -9 -9 -9 -9 -9 -8 -7 -7 -7 -6 -6 -5 -6 -6 -6 -7 -7 -8
-9 -9 -9 -8 -8 -8 -9 -8 -9 -8 -8 -8 -8 -8 -8 -8 -9 -9 -9 -10 -10 -10 -10 -9 -9 -9 -9 -9 -9 -9 -8 -8 -8 -7 -7 -7 -6 -7 -7 -7 -7 -7 -7 -7
-9 -9 -9 -9 -9 -9 -8 -9 -9 -8 -8 -8 -8 -7 -8 -8 -8 -8 -9 -9 -9 -10 -9 -9 -9 -9 -10 -10 -9 -9 -8 -8 -7 -7 -6 -6 -7 -8 -8 -8 -7 -7 -7 -7
-9 -9 -9 -9 -9 -9 -9 -9 -9 -8 -8 -8 -8 -7 -7 -7 -8 -8 -8 -9 -9 -9 -9 -9 -10 -10 -10 -9 -9 -9 -8 -8 -7 -7 -7 -7 -8 -8 -8 -8 -8 -8 -8 -7
-9 -9 -9 -9 -9 -9 -9 -9 -9 -8 -8 -8 -7 -7 -7 -7 -8 -8 -9 -9 -9 -10 -10 -10 -10 -10 -9 -9 -8 -8 -8 -7 -7 -7 -7 -7 -7 -7 -7 -7 -8 -8 -8 -8
-9 -9 -9 -9 -9 -9 -9 -9 -9 -8 -8 -8 -7 -8 -7 -8 -8 -8 -9 -9 -9 -10 -10 -9 -9 -9 -9 -9 -8 -8 -8 -8 -7 -8 -8 -8 -8 -8 -7 -8 -8 -8 -8 -7
-9 -9 -9 -9 -9 -9 -10 -9 -9 -8 -8 -8 -8 -8 -8 -8 -8 -8 -9 -9 -9 -9 -9 -9 -9 -9 -9 -9 -8 -8 -8 -8 -9 -9 -9 -8 -8 -8 -8 -8 -8 -8 -8 -7
-9 -9 -9 -9 -9 -10 -9 -8 -8 -8 -8 -8 -8 -8 -8 -8 -9 -8 -9 -9 -9 -9 -9 -9 -9 -9 -9 -9 -9 -8 -9 -9 -9 -9 -9 -8 -8 -8 -8 -8 -8 -8 -7 -7
-9 -10 -10 -9 -9 -9 -9 -8 -8 -8 -8 -8 -8 -8 -8 -8 -8 -9 -9 -9 -9 -9 -9 -9 -9 -9 -9 -9 -9 -9 -9 -9 -9 -9 -9 -9 -9 -8 -8 -8 -8 -8 -7 -7
-10 -10 -10 -9 -10 -9 -9 -8 -8 -8 -8 -8 -8 -8 -8 -8 -8 -8 -9 -9 -9 -9 -9 -9 -9 -9 -9 -9 -9 -9 -9 -10 -10 -9 -9 -9 -9 -8 -8 -8 -8 -8 -8 -7
-10 -10 -10 -9 -9 -9 -9 -8 -8 -8 -8 -8 -8 -9 -9 -9 -9 -9 -9 -9 -9 -9 -10 -10 -10 -9 -9 -10 -10 -10 -10 -10 -10 -9 -9 -9 -9 -9 -9 -9 -8 -8 -8 -8
-10 -9 -9 -9 -9 -9 -9 -9 -9 -8 -9 -9 -9 -9 -9 -9 -9 -9 -9 -9 -10 -10 -10 -10 -10 -10 -10 -10 -10 -10 -10 -10 -10 -10 -10 -10 -10 -9 -9 -9 -9 -8 -8 -8
-10 -9 -9 -9 -9 -9 -9 -9 -9 -9 -9 -9 -9 -9 -9 -9 -10 -10 -10 -10 -10 -10 -10 -10 -10 -10 -11 -11 -11 -11 -10 -10 -10 -10 -10 -10 -10 -10 -9 -9 -9 -9 -9 -8
Height
5919 5921 5927 5928 5928 5932 5933 5934 5935 5936 5936 5934 5934 5933 5933 5932 5931 5930 5928 5924 5921 5921 5919 5920 5920 5917 5916 5914 5911 5910 5910 5907 5905 5904 5902 5899 5895 5894 5894 5894 5893 5893 5893 5892
5916 5919 5922 5925 5928 5930 5932 5934 5936 5936 5935 5935 5934 5934 5933 5932 5932 5931 5929 5925 5921 5921 5921 5922 5918 5916 5916 5917 5914 5911 5909 5909 5907 5904 5904 5901 5898 5896 5895 5893 5892 5892 5891 5891
5914 5921 5919 5924 5927 5929 5933 5937 5935 5935 5935 5934 5934 5936 5935 5933 5932 5931 5929 5925 5922 5922 5921 5921 5918 5918 5916 5917 5914 5912 5911 5908 5907 5904 5901 5900 5899 5898 5896 5895 5893 5892 5891 5890
5911 5912 5917 5922 5925 5929 5938 5932 5933 5934 5935 5940 5933 5939 5936 5933 5931 5930 5928 5925 5923 5921 5921 5923 5922 5919 5917 5916 5912 5912 5912 5911 5909 5905 5902 5900 5897 5895 5895 5894 5894 5893 5891 5891
5907 5908 5914 5920 5925 5926 5931 5930 5931 5932 5935 5935 5934 5935 5934 5932 5931 5929 5927 5925 5923 5921 5922 5922 5922 5920 5917 5917 5912 5912 5912 5911 5909 5907 5904 5900 5896 5894 5894 5894 5893 5892 5892 5890
5907 5906 5909 5917 5919 5923 5926 5928 5929 5930 5933 5936 5933 5933 5936 5933 5931 5928 5925 5923 5921 5920 5920 5920 5921 5920 5918 5916 5913 5912 5911 5911 5910 5907 5904 5902 5900 5897 5896 5893 5892 5891 5890 5890
5899 5903 5908 5912 5918 5922 5924 5930 5933 5935 5935 5937 5931 5932 5931 5929 5928 5926 5923 5921 5919 5918 5918 5918 5917 5916 5915 5914 5913 5911 5911 5910 5907 5906 5904 5901 5900 5898 5896 5894 5892 5890 5889 5888
5894 5901 5905 5912 5915 5923 5925 5929 5933 5933 5933 5934 5928 5932 5929 5927 5926 5924 5922 5919 5918 5917 5916 5916 5915 5914 5912 5911 5912 5911 5909 5907 5905 5903 5902 5900 5898 5896 5894 5892 5890 5888 5886 5884
5894 5902 5906 5908 5913 5919 5922 5923 5926 5927 5928 5929 5931 5927 5925 5924 5922 5921 5920 5919 5917 5915 5914 5914 5910 5909 5909 5907 5907 5907 5906 5904 5902 5899 5898 5897 5895 5893 5891 5888 5886 5884 5882 5879
5892 5903 5903 5906 5911 5915 5918 5921 5924 5924 5927 5927 5927 5925 5927 5921 5918 5918 5917 5915 5915 5913 5912 5912 5910 5909 5908 5905 5904 5902 5901 5898 5896 5894 5893 5891 5889 5888 5885 5883 5880 5878 5875 5873
5888 5899 5901 5906 5910 5915 5915 5917 5919 5922 5921 5924 5925 5926 5920 5917 5915 5914 5913 5912 5911 5910 5908 5907 5907 5905 5903 5901 5899 5897 5895 5893 5891 5889 5886 5885 5883 5881 5878 5874 5872 5869 5867 5865
5887 5898 5902 5907 5907 5910 5912 5917 5918 5920 5913 5919 5918 5920 5915 5913 5911 5910 5909 5907 5906 5905 5904 5902 5899 5898 5896 5895 5891 5890 5889 5886 5884 5881 5879 5877 5876 5874 5871 5868 5864 5861 5857 5855
5885 5893 5899 5903 5907 5908 5911 5911 5913 5915 5916 5917 5916 5915 5909 5908 5907 5905 5904 5902 5900 5899 5897 5895 5893 5890 5888 5886 5885 5884 5881 5878 5876 5874 5872 5870 5868 5865 5862 5859 5854 5850 5848 5844
5885 5894 5899 5903 5905 5903 5906 5907 5909 5911 5914 5914 5912 5910 5901 5900 5900 5898 5897 5895 5894 5893 5891 5887 5886 5885 5883 5880 5877 5875 5873 5871 5868 5866 5863 5860 5857 5854 5850 5846 5843 5840 5837 5834
5883 5889 5892 5895 5898 5901 5903 5903 5903 5904 5904 5904 5904 5900 5896 5893 5891 5890 5889 5889 5888 5886 5884 5882 5880 5876 5876 5874 5870 5867 5865 5863 5861 5859 5856 5852 5848 5844 5840 5836 5832 5830 5827 5824
5880 5884 5890 5894 5896 5898 5898 5898 5897 5897 5896 5897 5895 5891 5889 5887 5885 5883 5882 5880 5880 5879 5876 5876 5874 5872 5869 5865 5862 5860 5858 5855 5852 5849 5847 5844 5841 5837 5833 5828 5824 5821 5819 5816
5880 5884 5889 5892 5893 5894 5895 5893 5892 5892 5891 5890 5888 5885 5882 5880 5878 5877 5876 5874 5873 5871 5869 5867 5865 5862 5859 5856 5853 5851 5848 5846 5843 5840 5837 5834 5831 5828 5824 5821 5817 5813 5810 5807
5879 5883 5886 5886 5889 5891 5890 5888 5886 5886 5886 5883 5882 5880 5878 5876 5874 5870 5868 5866 5865 5863 5860 5858 5855 5852 5849 5847 5845 5842 5839 5837 5834 5830 5826 5822 5819 5815 5812 5808 5806 5804 5800 5797
5876 5879 5881 5883 5886 5885 5884 5882 5880 5880 5880 5877 5876 5875 5872 5871 5868 5866 5863 5860 5858 5856 5853 5850 5847 5844 5842 5839 5837 5834 5830 5826 5822 5818 5814 5810 5805 5802 5799 5797 5794 5790 5788 5784
5871 5875 5878 5880 5882 5882 5876 5876 5875 5874 5874 5872 5870 5868 5866 5864 5861 5859 5856 5853 5850 5847 5845 5842 5839 5836 5834 5830 5826 5823 5820 5815 5811 5807 5803 5798 5794 5791 5787 5784 5781 5777 5774 5771
5868 5870 5873 5874 5875 5873 5871 5870 5869 5869 5868 5864 5864 5862 5860 5857 5855 5851 5848 5845 5842 5839 5836 5833 5830 5827 5824 5820 5817 5813 5809 5806 5802 5798 5794 5789 5783 5778 5774 5771 5767 5764 5761 5758
5864 5865 5867 5867 5867 5868 5865 5864 5863 5861 5859 5858 5856 5854 5851 5849 5846 5843 5840 5837 5833 5830 5827 5824 5821 5818 5814 5811 5808 5805 5801 5796 5791 5787 5782 5778 5773 5769 5764 5759 5754 5751 5748 5744
5856 5858 5860 5861 5860 5858 5858 5857 5855 5854 5853 5851 5849 5846 5844 5841 5838 5835 5832 5828 5825 5822 5819 5816 5812 5809 5806 5802 5799 5794 5790 5785 5782 5777 5773 5768 5762 5757 5752 5747 5743 5739 5735 5730
5849 5851 5852 5853 5851 5851 5850 5849 5848 5847 5846 5844 5842 5839 5836 5833 5830 5827 5823 5820 5817 5814 5810 5807 5803 5799 5795 5792 5788 5785 5781 5776 5772 5767 5761 5757 5751 5746 5741 5736 5732 5728 5723 5718
5843 5843 5845 5844 5844 5843 5842 5841 5841 5840 5838 5837 5834 5831 5828 5825 5822 5819 5815 5812 5809 5806 5803 5799 5795 5791 5787 5783 5780 5776 5772 5767 5762 5757 5752 5747 5741 5737 5731 5726 5722 5717 5712 5707
5835 5835 5837 5837 5836 5835 5834 5834 5834 5833 5831 5829 5826 5824 5820 5818 5814 5811 5808 5805 5802 5799 5795 5791 5787 5783 5779 5775 5771 5767 5763 5758 5753 5747 5742 5737 5732 5727 5722 5717 5711 5706 5701 5696
Wind_Speed
17 17 10 20 15 13 11 6 2 2 5 11 10 8 3 6 9 11 14 14 12 12 10 10 9 6 10 13 15 15 15 14 16 16 14 13 12 12 11 11 13 14 14 13
21 18 23 17 15 14 7 3 3 3 4 6 10 8 4 3 4 7 10 13 17 16 18 18 21 10 11 11 12 12 12 10 11 12 10 15 16 14 11 9 10 10 12 15
22 17 21 18 19 14 6 4 5 4 3 6 7 5 7 4 2 4 8 13 14 15 19 19 12 12 12 11 11 11 12 12 15 11 10 13 16 16 11 10 11 10 9 9
25 30 26 18 16 14 6 13 10 7 4 7 5 3 6 6 4 6 9 12 11 14 18 13 11 11 12 15 14 9 6 9 8 14 14 18 19 15 10 6 9 10 11 9
28 30 27 23 16 19 14 15 12 11 6 6 10 2 10 6 1 9 11 10 9 12 10 7 6 9 10 12 16 14 7 8 15 14 14 18 24 14 5 6 8 11 14 12
26 35 32 23 23 19 15 11 14 15 8 3 10 3 6 7 8 12 15 14 12 10 8 6 5 6 7 9 15 16 14 16 15 14 15 14 15 14 10 11 11 12 11 14
35 38 33 28 22 19 13 5 5 8 6 5 10 0 10 3 7 9 11 11 15 15 10 8 10 7 6 8 11 14 17 18 19 17 15 16 16 13 11 11 11 13 14 16
35 36 33 29 23 11 10 11 11 11 9 8 12 2 8 9 10 11 10 7 11 12 17 15 15 14 14 9 8 10 16 20 21 19 17 16 18 17 14 15 16 19 21 20
28 23 28 29 24 15 12 9 13 10 13 10 9 10 11 14 12 9 9 9 12 13 4 12 18 13 19 21 14 21 23 21 23 25 24 21 20 21 20 19 19 21 22 22
26 24 25 25 20 19 15 13 4 4 8 6 11 10 8 17 12 12 11 13 10 11 13 13 9 15 13 7 12 25 23 22 25 27 27 27 27 27 27 27 26 27 27 28
31 23 26 20 20 16 15 12 8 8 7 8 8 10 18 13 17 16 14 15 13 15 15 16 20 20 20 16 19 23 25 27 28 29 27 27 28 29 31 33 35 36 36 35
39 20 13 19 16 17 14 12 8 3 11 9 11 12 19 14 17 19 18 17 17 18 19 24 19 20 20 21 26 27 30 32 31 29 27 28 30 32 34 36 38 39 41 38
39 22 17 16 20 18 14 14 12 10 11 12 10 16 21 25 22 24 23 24 24 26 27 29 23 20 23 25 28 28 32 33 29 27 28 30 32 34 36 36 37 38 40 42
36 20 17 12 15 12 14 18 18 12 11 12 13 16 24 25 25 27 27 28 28 27 26 26 25 26 25 29 32 32 33 29 27 29 31 33 35 38 39 38 38 39 42 43
33 22 26 21 19 19 18 14 14 16 18 16 19 23 25 25 24 24 24 25 26 27 29 28 27 28 27 35 34 34 32 30 29 30 32 34 37 39 39 40 39 35 33 33
35 24 24 23 21 19 15 15 18 18 16 17 22 25 23 22 21 23 23 24 26 28 31 29 32 35 37 37 34 33 31 30 31 32 34 35 36 35 36 38 32 31 30 31
28 22 20 19 18 18 17 19 19 20 20 23 25 23 21 21 24 21 21 23 25 28 31 33 34 35 34 34 32 32 32 31 33 34 35 36 36 36 36 32 34 36 37 36
25 21 18 22 18 17 19 23 25 24 23 25 23 22 23 22 23 23 23 23 24 25 27 29 30 31 31 31 31 31 33 32 33 35 37 37 36 36 35 36 37 37 38 38
22 22 24 20 16 20 25 29 28 24 26 27 25 24 23 24 25 24 23 23 24 25 26 28 29 30 29 30 30 30 31 33 34 35 36 37 37 36 35 36 37 38 37 36
26 23 19 21 19 20 24 24 27 30 30 26 25 25 24 24 25 24 26 25 26 27 28 28 27 29 29 29 31 31 32 33 33 33 35 37 37 36 36 38 36 34 34 33
26 24 22 24 23 25 29 29 32 28 31 28 26 26 26 25 26 27 27 27 28 28 28 28 29 28 29 30 31 33 33 33 34 35 36 36 34 35 37 37 39 35 33 35
24 25 25 28 28 30 28 26 27 27 28 28 28 27 26 26 28 28 28 28 29 29 29 29 29 30 31 32 32 33 32 33 35 36 37 37 37 38 35 35 34 34 35 38
27 29 25 28 25 28 27 27 27 27 27 27 27 27 28 28 28 28 28 28 29 29 28 29 31 31 32 32 33 32 32 34 34 37 38 36 36 35 35 33 33 33 35 38
26 29 29 27 29 28 28 28 29 26 24 26 25 27 28 28 28 29 30 30 29 29 30 31 32 33 33 34 33 33 33 34 36 36 36 35 34 34 35 35 34 34 38 38
26 25 25 28 28 28 28 28 27 25 26 27 27 28 29 29 30 29 28 29 29 30 31 32 33 33 33 33 33 33 34 35 36 35 34 33 34 34 35 34 34 36 37 35
26 27 28 30 29 31 30 29 28 28 30 31 31 30 30 29 29 28 27 29 30 30 31 31 32 31 32 33 33 33 33 34 34 33 33 33 34 35 35 36 37 35 35 36
Wind_Direction
191 169 167 207 191 174 168 150 160 148 130 126 124 125 105 65 36 4 360 346 326 325 317 345 348 33 53 62 63 59 51 53 51 34 25 29 39 40 38 24 22 14 14 12
196 182 215 193 184 177 184 178 209 211 251 186 169 164 164 117 39 352 337 332 324 332 336 343 316 92 54 31 44 44 40 28 32 20 24 11 358 8 8 19 13 12 18 21
199 206 199 194 177 179 234 195 210 230 267 295 218 224 225 226 253 304 311 302 316 329 327 350 26 52 35 30 30 20 19 24 37 38 5 353 343 337 347 355 359 9 12 22
193 224 194 193 192 189 220 238 239 268 69 276 301 193 258 224 349 319 297 280 307 330 337 2 11 12 351 6 22 19 24 23 12 344 345 336 347 346 313 348 6 359 354 9
200 206 186 197 206 201 214 241 255 277 293 330 323 141 269 220 328 332 317 266 292 313 333 351 332 341 347 351 9 9 347 333 338 334 340 343 349 8 320 333 352 346 341 341
202 199 189 199 203 216 221 251 267 284 287 326 276 115 270 262 280 293 302 288 256 279 301 300 309 344 324 343 350 351 347 330 327 330 334 336 353 358 351 323 310 313 328 325
193 202 195 199 204 220 230 238 288 294 285 244 270 309 245 325 335 315 312 306 268 266 271 250 273 286 297 311 336 349 342 332 325 321 321 314 319 329 322 322 315 301 301 305
202 199 194 196 203 215 243 215 234 266 257 268 286 293 266 305 299 294 312 336 339 312 280 283 252 258 278 261 297 325 327 322 318 311 304 303 301 301 303 307 300 298 303 303
200 198 206 202 210 199 253 251 230 234 255 230 250 281 306 303 294 288 295 297 319 327 254 329 347 220 296 255 259 298 304 304 308 307 303 297 293 292 294 290 287 287 289 293
189 188 203 198 190 200 214 224 300 271 234 239 264 265 264 284 290 313 316 314 313 318 308 294 304 316 317 314 281 292 301 300 301 300 295 294 294 295 297 295 291 287 284 284
184 174 197 185 197 228 228 232 234 220 237 226 275 272 262 282 293 300 304 309 302 302 310 308 301 293 300 286 288 295 294 294 294 291 287 285 287 293 296 297 296 294 290 283
173 170 175 198 207 215 210 201 225 271 274 271 225 263 273 273 278 282 286 290 297 295 300 312 293 287 275 280 286 299 294 290 293 286 284 286 288 291 293 293 291 288 285 284
182 169 181 193 199 209 217 247 236 243 259 272 255 273 272 271 274 276 278 284 286 293 294 296 287 280 281 290 299 291 288 287 287 286 286 285 289 292 293 290 289 287 283 283
185 195 179 204 204 201 227 245 252 252 257 263 288 263 279 277 274 272 274 277 281 285 283 284 279 272 275 292 299 292 289 286 285 288 290 293 296 298 296 294 291 284 280 277
186 199 198 199 212 232 252 265 275 265 262 267 264 284 291 283 274 273 269 262 266 269 268 272 269 269 278 287 290 290 288 287 287 287 289 292 293 293 293 295 292 285 284 282
193 202 208 217 233 247 256 278 289 285 278 279 292 292 288 291 286 281 270 265 262 262 265 272 274 278 281 284 286 287 286 286 289 291 291 291 289 285 287 290 286 281 277 279
194 205 208 229 229 247 269 271 288 290 285 294 294 300 303 304 298 291 282 270 266 262 265 273 275 278 280 283 287 288 291 292 291 291 290 290 285 281 279 279 277 279 284 279
201 208 213 226 240 252 255 280 288 290 293 293 294 300 298 300 300 298 296 291 285 281 279 279 281 282 284 286 287 289 289 290 291 293 295 295 292 288 283 281 282 283 285 282
200 210 223 239 246 256 280 280 280 277 293 293 295 297 296 294 295 295 297 293 290 287 283 282 283 285 286 287 289 291 294 297 299 300 301 302 303 297 289 283 286 289 286 284
210 216 223 231 248 269 260 274 276 282 290 289 291 295 293 291 293 297 293 292 289 289 290 290 289 289 291 294 296 298 300 301 301 301 303 304 301 301 300 291 286 291 287 286
217 219 231 247 251 262 276 278 279 283 283 288 293 294 293 292 293 294 294 294 293 294 294 293 294 296 298 299 300 302 302 300 298 298 301 304 302 306 303 297 286 289 290 292
225 230 240 246 262 276 280 280 281 283 286 292 295 296 293 294 294 294 294 295 296 297 299 299 299 300 301 301 301 301 300 299 300 302 307 306 302 301 302 302 296 292 292 295
229 238 248 264 268 280 279 280 283 286 289 291 296 294 292 294 294 298 300 302 301 301 301 300 300 300 300 301 303 304 304 303 305 305 304 302 303 302 302 305 300 299 298 297
249 253 265 271 273 278 282 284 282 286 286 294 297 293 292 294 298 298 301 303 304 303 303 303 303 303 304 305 306 306 304 305 305 305 306 307 305 307 308 306 303 303 303 301
257 261 266 266 273 279 281 281 286 287 290 295 298 296 294 296 298 300 303 304 303 303 303 303 303 303 303 305 306 305 305 304 306 307 307 308 308 308 307 306 304 304 302 303
265 266 268 273 277 275 276 282 286 287 290 295 298 298 296 295 297 301 302 301 301 301 302 302 301 302 304 304 304 303 305 308 308 308 308 309 310 309 309 308 305 303 303 304